RH
32 28 30 14 16 10 9 13 14 16 19 20 13 16 15 14 21 22 16 16 14 16 19 21 22 21 19 18 18 16 13 12 10 9 7 6 6 7 7 9 10 11 11
33 32 34 19 20 13 9 9 12 14 18 24 16 13 16 24 21 12 12 16 14 12 13 13 15 17 18 17 21 22 15 16 16 15 16 15 15 16 16 16 17 17 17
38 33 34 31 17 18 10 9 8 12 16 26 25 22 26 22 13 8 9 10 10 10 11 13 15 14 13 12 12 20 14 14 12 11 13 15 15 13 12 12 11 10 11
41 33 34 36 19 17 15 10 10 8 13 17 25 22 17 14 8 9 7 8 10 12 12 12 11 10 9 10 10 10 10 10 10 10 10 11 11 11 11 12 12 12 10
33 34 35 36 30 17 15 16 11 9 9 12 17 17 10 8 8 8 8 8 9 10 11 12 11 9 8 9 10 12 13 14 13 13 12 11 11 10 10 11 12 12 11
40 34 36 36 38 25 18 17 15 11 9 9 10 10 8 6 7 7 6 6 7 8 8 10 10 10 10 11 11 11 11 12 12 12 12 12 12 10 10 10 9 10 9
49 37 38 39 41 39 30 20 14 13 11 9 8 8 7 6 6 5 5 6 9 10 10 10 11 11 10 8 6 7 8 9 10 10 10 10 9 10 9 9 8 8 8
45 42 37 40 41 41 40 31 18 13 12 10 8 7 7 7 7 5 5 6 8 9 10 12 13 13 12 13 13 12 9 7 7 8 9 9 10 10 11 9 10 11 9
44 43 42 41 41 40 41 41 32 20 15 12 11 8 7 7 8 8 8 7 8 9 11 12 10 8 7 7 6 6 7 12 13 12 10 10 10 11 11 14 15 14 13
43 44 45 46 43 41 39 40 40 36 22 15 14 12 9 8 7 7 8 9 10 10 10 10 10 8 6 5 5 5 5 6 8 13 14 14 15 15 18 22 24 19 16
34 40 43 44 46 43 41 40 40 41 39 28 19 16 14 12 9 8 8 8 9 9 10 10 10 9 9 8 7 7 6 6 7 12 16 17 18 20 26 26 26 24 22
30 31 34 42 46 46 44 41 41 41 41 41 34 22 18 16 14 13 11 9 9 9 8 8 9 8 8 8 9 8 8 7 12 19 23 22 23 25 26 24 22 23 26
28 32 34 33 36 45 48 45 41 40 41 43 43 38 25 20 18 16 16 16 15 13 10 9 9 8 8 8 8 8 11 26 47 58 58 42 31 26 24 22 20 21 24
24 30 32 32 32 35 40 50 48 45 41 42 42 45 39 26 22 19 19 18 19 19 17 17 16 14 12 11 13 16 26 59 62 68 70 57 43 32 25 22 21 21 21
21 24 30 29 30 31 35 38 46 51 47 44 44 43 43 41 30 26 24 21 20 20 19 19 21 21 20 21 24 30 39 68 74 65 56 47 38 30 26 25 24 24 24
20 20 23 28 28 28 30 35 38 45 53 52 48 47 47 45 46 42 32 27 26 25 23 23 23 22 22 23 22 23 50 59 51 43 48 44 38 32 27 26 28 28 32
22 22 22 24 26 26 27 29 30 37 44 56 59 55 50 49 45 44 47 43 34 31 30 29 28 27 27 28 29 31 44 55 48 35 33 32 30 28 28 30 35 35 33
21 22 22 22 24 26 27 28 30 32 38 46 50 57 65 63 54 47 46 48 47 49 46 35 32 31 32 35 41 45 43 42 41 40 39 36 33 31 32 38 35 33 36
22 19 21 21 22 26 27 29 32 33 33 46 49 54 57 56 62 68 66 55 49 48 50 53 40 32 35 36 40 51 51 46 41 40 40 38 36 37 38 38 38 40 42
27 25 22 22 22 25 31 27 31 34 35 41 47 50 60 70 74 68 57 69 71 64 53 56 60 44 38 42 44 50 52 56 56 55 56 55 52 50 47 47 46 42 38
32 27 25 21 24 24 28 32 31 35 38 37 41 48 65 58 61 72 66 60 73 76 74 57 64 64 47 53 63 62 50 54 57 59 62 60 55 54 52 52 52 52 56
32 29 25 23 25 30 28 32 29 30 38 42 41 42 48 54 50 64 67 59 61 81 90 84 66 66 64 67 82 78 58 57 63 61 60 60 61 60 60 58 60 61 58
32 30 28 24 25 29 27 28 27 23 28 39 45 47 44 51 54 61 63 55 51 58 68 84 96 80 68 70 78 77 71 71 69 68 68 73 71 68 63 64 68 67 63
42 38 30 26 22 23 28 24 24 21 28 37 41 42 43 47 51 55 62 59 54 54 54 69 81 87 95 90 91 86 79 75 76 76 74 79 77 73 70 74 75 74 67
23 31 34 30 26 23 22 32 24 37 38 24 30 32 40 45 52 51 62 66 58 60 65 74 82 96 95 96 96 95 74 72 76 83 82 79 84 82 76 76 88 82 74
14 14 16 21 21 24 20 22 33 26 29 29 26 24 37 41 40 47 51 61 57 57 68 76 95 95 96 96 97 97 91 82 85 83 81 83 86 85 82 77 80 83 74
Wind_Speed
24 23 21 19 14 13 13 11 11 10 10 11 10 9 8 7 8 9 8 6 6 5 5 6 7 8 8 9 9 10 12 12 12 12 12 12 12 12 13 13 13 12 12
22 22 18 19 15 13 13 12 10 11 11 10 10 7 7 8 9 9 8 8 8 7 7 7 7 7 7 7 8 8 8 10 10 9 10 11 10 9 10 10 10 10 10
22 21 17 17 15 14 12 12 12 10 9 8 7 8 7 7 8 10 10 9 10 11 10 10 10 10 9 8 8 7 7 8 9 9 9 9 8 7 8 10 10 9 8
20 18 15 16 15 14 12 10 11 10 7 6 5 5 5 6 8 10 11 10 10 11 12 12 11 11 12 12 12 11 9 7 8 9 9 8 7 7 8 9 8 8 7
15 15 14 15 15 12 12 10 10 11 9 7 4 5 7 7 7 9 10 10 10 11 10 10 10 10 11 10 9 9 10 9 9 9 9 7 6 5 5 5 5 5 5
13 13 13 11 12 12 11 12 9 10 9 8 5 3 5 5 5 6 6 8 8 7 7 8 8 7 7 7 6 5 5 5 6 6 6 6 6 6 7 8 7 8 8
11 12 11 8 10 11 11 12 12 8 8 7 4 2 2 3 3 4 5 5 6 6 5 5 5 4 5 5 5 6 6 6 6 6 7 7 7 8 9 10 12 12 13
10 9 9 8 8 10 10 11 11 10 6 6 5 2 1 2 1 1 3 4 5 4 3 3 1 1 3 5 6 7 7 6 7 7 9 11 12 12 13 15 16 15 16
11 7 8 9 7 7 9 9 10 11 10 7 6 6 4 4 4 4 3 4 5 6 5 4 4 4 4 5 7 9 10 10 10 10 12 14 16 17 16 16 17 18 20
9 8 7 9 9 8 8 8 8 8 9 10 8 8 7 8 9 10 9 9 8 9 10 11 11 10 9 9 10 12 13 14 15 17 19 17 17 18 19 19 19 20 22
9 9 9 9 11 11 10 9 8 8 8 8 10 11 11 10 11 13 14 14 15 15 16 17 17 17 16 16 16 17 17 17 18 20 20 21 19 18 18 18 21 23 25
11 10 10 11 11 13 13 12 11 10 9 9 10 11 12 13 13 12 14 16 18 20 21 22 22 23 22 22 21 22 22 23 20 20 21 21 19 18 19 21 22 24 25
13 12 10 10 12 12 14 14 14 13 12 12 12 12 13 14 15 15 16 16 17 18 22 24 25 26 26 25 25 24 22 19 18 19 21 21 22 21 23 25 26 27 28
11 11 11 11 11 10 11 14 15 15 15 14 14 14 15 15 15 15 15 18 19 21 21 22 23 25 27 26 25 24 20 19 20 21 20 21 24 26 27 28 30 31 33
14 11 10 12 11 12 10 10 13 15 16 17 16 17 18 19 18 17 16 17 18 20 21 22 22 25 26 26 25 24 21 23 22 22 24 24 25 27 29 31 32 33 35
17 17 14 12 12 14 14 12 10 11 15 17 19 20 20 21 23 21 20 19 20 20 20 21 22 24 25 26 26 26 23 23 25 27 27 27 29 30 32 33 35 36 37
19 20 22 17 16 14 16 15 14 14 12 15 19 22 23 24 25 25 24 23 22 22 23 23 23 25 25 26 26 26 26 27 27 29 30 31 32 33 35 37 36 37 38
21 22 22 21 21 18 17 18 15 17 16 13 12 15 20 24 26 26 27 27 26 25 26 27 26 25 26 26 26 26 27 28 30 31 31 33 34 35 37 37 38 38 39
27 24 25 24 25 23 21 21 20 17 17 16 14 14 15 17 21 24 26 28 29 28 28 28 28 28 27 27 26 27 27 28 30 30 31 33 35 35 36 36 37 39 41
32 29 27 28 29 29 25 25 26 23 21 21 21 20 21 21 23 22 24 26 29 30 31 30 28 29 29 28 28 29 28 28 30 31 31 33 34 35 35 36 38 40 41
37 35 30 30 28 33 29 26 25 25 25 26 25 24 24 26 28 26 24 25 26 29 31 31 30 30 31 31 30 32 31 30 31 33 34 34 35 36 36 37 38 40 40
43 40 36 33 36 35 33 30 30 28 28 29 29 29 28 29 29 30 27 26 26 27 29 32 33 33 32 34 32 34 33 33 33 34 35 36 37 38 39 39 40 40 41
49 49 42 40 39 39 41 39 35 35 33 32 29 30 31 32 33 32 32 31 30 29 29 31 36 38 36 36 37 36 33 33 35 35 36 37 39 40 41 41 40 42 41
55 53 51 47 46 46 44 48 40 38 36 33 35 34 33 32 34 34 35 37 36 34 33 36 37 39 44 42 41 37 36 34 35 36 37 38 40 42 43 42 45 44 45
59 57 57 53 54 52 49 49 48 41 44 38 38 37 37 35 34 35 36 37 40 38 38 40 43 47 46 45 42 37 39 37 36 38 38 40 43 45 45 44 43 45 47
57 58 57 56 55 58 55 53 50 45 42 44 41 39 39 44 42 39 37 38 41 40 42 42 45 52 50 41 42 43 41 39 39 42 43 42 44 45 46 45 46 48 50
Wind_Direction
7 7 4 10 14 27 33 55 65 60 63 68 72 72 55 41 32 24 23 43 58 70 76 75 75 68 65 65 68 68 71 75 76 76 79 80 80 77 74 69 66 66 66
2 6 4 8 7 18 28 35 53 60 64 74 74 76 66 45 32 28 51 68 71 75 76 73 73 73 72 68 65 63 72 69 67 64 69 67 66 70 73 72 64 58 56
359 1 2 6 7 10 12 27 39 55 70 86 90 91 76 61 53 61 65 73 79 84 88 88 87 84 76 65 60 67 69 70 62 65 68 63 60 66 67 62 55 49 49
354 357 1 3 7 7 2 12 32 46 62 74 98 97 95 91 83 73 71 76 89 95 96 98 97 96 90 80 72 66 62 61 62 66 68 66 62 58 59 51 42 28 20
355 358 2 2 0 1 7 3 24 35 40 59 83 108 111 108 92 73 79 80 84 85 87 92 93 91 92 86 70 59 53 46 41 37 35 34 33 30 19 12 1 350 338
356 358 359 357 351 356 3 7 12 23 28 40 61 96 109 101 92 88 82 100 108 98 92 85 80 67 59 67 70 54 40 21 6 5 10 357 355 351 348 339 328 318 311
352 355 348 345 341 352 0 7 11 12 13 22 33 58 60 74 82 98 112 129 126 121 109 93 77 60 30 17 4 356 349 340 341 334 324 316 318 316 313 314 313 314 312
338 339 332 329 337 340 351 3 7 11 356 358 350 333 309 345 4 118 144 175 176 173 166 151 114 27 360 349 343 341 342 324 318 315 309 307 306 304 305 300 301 304 307
310 320 315 317 321 331 335 350 357 2 359 330 319 310 278 261 274 279 258 231 227 235 237 244 252 268 284 304 313 315 316 307 296 288 287 292 296 299 299 300 298 299 299
306 300 297 294 304 307 314 326 339 348 347 343 315 294 288 274 265 261 262 261 260 259 265 271 276 279 284 290 298 306 306 307 291 281 280 280 286 290 296 296 294 293 292
342 318 300 290 291 291 296 302 313 323 324 325 321 305 285 279 271 268 266 266 265 265 266 270 274 278 283 287 291 290 291 291 290 283 277 280 279 284 293 293 294 295 294
345 341 329 314 300 294 287 293 294 298 305 305 302 303 301 284 276 274 269 270 273 274 274 274 276 278 281 283 284 285 287 293 292 288 285 283 281 281 285 291 294 296 297
342 333 338 334 327 310 295 281 284 291 291 293 292 293 294 292 284 274 274 275 276 276 276 278 279 279 279 279 279 280 283 289 282 286 288 289 285 285 286 289 291 294 295
326 332 334 336 330 328 313 292 278 276 282 281 285 285 280 281 284 284 280 277 278 281 282 284 284 281 277 277 278 280 280 285 282 282 277 282 285 286 286 288 292 296 295
292 306 320 324 329 325 322 313 299 282 273 276 277 278 280 280 278 279 279 278 277 278 280 283 284 284 285 287 286 283 280 284 285 281 283 285 286 285 287 289 291 290 291
290 292 293 301 309 313 311 311 309 296 280 270 271 275 278 280 282 279 278 278 277 275 275 277 280 281 284 287 288 286 281 282 284 283 283 285 287 289 290 290 289 291 292
278 284 286 286 292 301 300 298 308 308 296 278 271 269 269 273 277 283 283 280 277 278 276 273 272 275 280 283 284 283 283 282 281 281 283 285 286 288 289 289 290 292 294
270 271 275 278 281 287 294 286 293 300 301 298 289 284 277 273 276 278 278 279 279 277 276 277 276 276 279 282 281 280 282 284 284 283 283 285 287 288 288 291 293 293 294
277 272 275 273 268 276 282 283 283 285 288 289 297 296 292 288 283 280 278 277 278 278 276 273 274 275 277 278 279 280 281 281 281 282 284 285 285 285 287 288 290 292 294
274 274 274 279 267 265 265 269 278 283 280 279 287 295 297 299 298 293 292 283 278 277 278 277 276 275 274 276 278 279 280 282 284 284 282 282 284 284 286 289 292 294 294
268 268 266 267 268 264 262 261 260 265 270 274 275 282 289 294 299 297 292 289 286 280 275 276 277 275 274 272 275 278 278 279 282 284 283 283 284 285 287 289 292 294 295
268 266 266 262 263 265 254 254 257 258 261 268 274 275 278 286 293 297 295 289 288 286 280 275 271 272 271 270 270 273 277 277 280 281 282 282 282 282 285 290 293 295 296
265 268 265 262 259 256 255 249 254 258 257 258 266 265 271 276 285 292 295 293 290 289 289 287 281 270 266 265 266 267 270 274 275 279 280 280 281 283 286 290 293 295 296
266 265 265 263 262 258 255 256 253 256 258 253 259 263 257 268 276 281 286 290 294 292 289 287 288 284 275 263 258 263 266 268 272 275 278 279 281 283 284 286 289 294 297
264 263 263 261 263 260 258 252 254 257 265 257 257 266 256 257 266 275 279 284 291 295 291 289 285 284 283 276 262 260 265 268 270 274 274 275 278 280 282 282 290 296 301
264 262 260 259 259 260 258 254 253 254 253 258 263 265 268 261 267 271 277 280 285 293 292 288 287 286 288 289 271 265 265 269 273 275 274 273 276 279 283 285 290 295 296